| time (UTC) | temp C | wind direction | speed KPH | gust KPH | rain 1hr cm | rain 24hr cm | rain mn cm | humidity % | barometer mb |
| 20260503213212 | 32 | 22 | 0.0 | 8.0 | 0.00 | 0.00 | 0.00 | 20 | 1007.3 |
| 20260503210211 | 32 | 291 | 1.6 | 9.7 | 0.00 | 0.00 | 0.00 | 21 | 1007.7 |
| 20260503200211 | 29 | 313 | 0.0 | 9.7 | 0.00 | 0.00 | 0.00 | 30 | 1008.5 |
| 20260503193211 | 28 | 273 | 9.7 | 9.7 | 0.00 | 0.00 | 0.00 | 31 | 1008.8 |
| 20260503190210 | 26 | 288 | 0.0 | 8.0 | 0.00 | 0.00 | 0.00 | 37 | 1009.1 |
| 20260503183211 | 25 | 338 | 3.2 | 8.0 | 0.00 | 0.00 | 0.00 | 43 | 1009.6 |
| 20260503180210 | 23 | 292 | 0.0 | 6.4 | 0.00 | 0.00 | 0.00 | 45 | 1009.8 |
| 20260503173210 | 22 | 326 | 0.0 | 8.0 | 0.00 | 0.00 | 0.00 | 54 | 1010.0 |
| 20260503170210 | 20 | 346 | 0.0 | 6.4 | 0.00 | 0.00 | 0.00 | 59 | 1010.3 |
| 20260503160210 | 16 | 149 | 0.0 | 3.2 | 0.00 | 0.00 | 0.00 | 78 | 1010.6 |
| 20260503150209 | 12 | 149 | 0.0 | 0.0 | 0.00 | 0.00 | 0.00 | 95 | 1010.7 |
| 20260503130208 | 10 | 148 | 0.0 | 0.0 | 0.00 | 0.00 | 0.00 | 90 | 1010.2 |
| 20260503120208 | 11 | 148 | 0.0 | 0.0 | 0.00 | 0.00 | 0.00 | 89 | 1010.3 |
| 20260503110207 | 11 | 148 | 0.0 | 0.0 | 0.00 | 0.00 | 0.00 | 87 | 1010.7 |
| 20260503100207 | 12 | 148 | 0.0 | 0.0 | 0.00 | 0.00 | 0.00 | 86 | 1010.7 |
| 20260503090208 | 13 | 148 | 0.0 | 0.0 | 0.00 | 0.03 | 0.00 | 83 | 1010.8 |
| 20260503080207 | 14 | 148 | 0.0 | 0.0 | 0.00 | 0.03 | 0.00 | 80 | 1010.8 |
| 20260503070206 | 15 | 148 | 0.0 | 0.0 | 0.00 | 0.03 | 0.00 | 76 | 1010.9 |
| 20260503060206 | 16 | 101 | 0.0 | 0.0 | 0.00 | 0.03 | 0.03 | 73 | 1010.4 |
| 20260503053206 | 16 | 101 | 0.0 | 0.0 | 0.00 | 0.03 | 0.03 | 72 | 1010.9 |
| 20260503050205 | 17 | 101 | 0.0 | 0.0 | 0.00 | 0.03 | 0.03 | 69 | 1011.2 |
| 20260503043206 | 17 | 101 | 0.0 | 0.0 | 0.00 | 0.03 | 0.03 | 67 | 1011.2 |
| 20260503040205 | 18 | 101 | 0.0 | 1.6 | 0.00 | 0.03 | 0.03 | 64 | 1011.2 |
| 20260503033206 | 18 | 101 | 0.0 | 11.3 | 0.00 | 0.03 | 0.03 | 62 | 1010.9 |
| 20260503030205 | 20 | 125 | 3.2 | 19.3 | 0.00 | 0.03 | 0.03 | 59 | 1010.7 |
| 20260503023205 | 22 | 153 | 6.4 | 12.9 | 0.00 | 0.03 | 0.03 | 51 | 1010.0 |
| 20260503020206 | 23 | 153 | 8.0 | 9.7 | 0.00 | 0.03 | 0.03 | 48 | 1009.6 |
| 20260503013205 | 24 | 319 | 0.0 | 1.6 | 0.00 | 0.03 | 0.03 | 45 | 1009.2 |
| 20260503010205 | 24 | 337 | 0.0 | 8.0 | 0.00 | 0.03 | 0.03 | 46 | 1009.2 |
| 20260503003205 | 24 | 265 | 0.0 | 9.7 | 0.00 | 0.03 | 0.03 | 45 | 1009.4 |
| 20260502233205 | 23 | 22 | 3.2 | 11.3 | 0.00 | 0.03 | 0.03 | 49 | 1009.7 |
| 20260502230205 | 22 | 19 | 0.0 | 8.0 | 0.00 | 0.03 | 0.03 | 48 | 1010.2 |
| 20260502223204 | 22 | 15 | 0.0 | 8.0 | 0.00 | 0.03 | 0.03 | 49 | 1010.7 |
| 20260502220204 | 21 | 312 | 0.0 | 8.0 | 0.00 | 0.03 | 0.03 | 50 | 1011.3 |